Location: ???????
(55.8860°N, 38.0932°E)
Time: 02:05:40
(UTC+00:00)

Sich 1 - Pass Details

Date: 14 April 2024
Orbit: 585 x 612 km, 82.5° (Epoch: 28 May)

Event Time Altitude Azimuth Distance (km) Brightness Sun altitude
Rises 00:18:15 0° 347° (NNW) 2,828 6.9 -15.7°
Reaches altitude 10° 00:20:27 10° 346° (NNW) 1,923 6.0 -15.5°
Maximum altitude 00:24:41 78° 261° (W) 607 2.9 -15.1°
Enters shadow 00:28:40 12° 175° (S) 1,812 5.1 -14.7°
